Location: Almena City Lake
(39.8850°N, 99.6804°W)
Time: 04:28:15
(UTC+00:00)

STARLINK-25 - Pass Details

Date: 18 February 2020
Orbit: 528 x 531 km, 53.0° (Epoch: 29 March)

Event Time Altitude Azimuth Distance (km) Brightness Sun altitude
Rises 01:17:26 0° 216° (SW) 2,649 7.7 -12.3°
Reaches altitude 10° 01:19:41 10° 211° (SSW) 1,764 6.7 -12.7°
Maximum altitude 01:23:34 51° 135° (SE) 672 3.8 -13.5°
Enters shadow 01:25:51 22° 68° (ENE) 1,175 4.7 -13.9°
